DELTA 1 DEB, 10766

Orbit data source: Space-Track

DELTA 1 DEB, 10766 is space debris in SSO originally from a launch on Thu, 29 Jul 1976 UTC launched from the Air Force Western Test Range (AFWTR). Debris objects in space refer to the collection of defunct objects orbiting the Earth. Examples of debris include non-operational satellites, rocket bodies, and fragments generated from explosions, collisions, or faulty payload assembly.

Loading next visibility...
Identifier
10766, 1976-077BP
Orbit
SSO
Country
Flag of USUS
Related business
Manufacturer
Unknown
Mission
Spacecraft
Bus & Motor
Unknown
Mass
Unknown
Launch date (UTC)
1976-07-29 (50 years ago)
Launch vehicle
Unknown
Launch site
Air Force Western Test Range (AFWTR)
Object type
Payload
Rocket body
Debris
Shape & HBR
Unknown shape, 0.6 m
Radar Cross Section
Medium (>0.1 m² and <1 m²)

Expand to show TLE details & history
Last TLE update: 10 hours ago

TLE from 10 hours ago
0 DELTA 1 DEB
1 10766U 76077BP  26118.86774258 -.00000035  00000-0  90398-4 0  9994
2 10766 102.4030  98.0030 0053580 340.8559  86.2116 12.31298629236285
Epoch: 2026-04-28T20:49Z
TLE epoch observation values (Epoch: 2026-04-28T20:49:32.958Z)
Latitude
64.70547°
Longitude
-98.80817°
Altitude
1,552.086 km
Speed
7.098 km/s
True Right ascension
04h 41m 39s
True Declination
64° 35' 09"
Sunlit
Object was in daylight at epoch
Visualization orbit readout
Latitude
Unknown
Longitude
Unknown
Altitude
Unknown
Speed
Unknown
Apparent Right ascension
Unknown
Apparent Declination
Unknown
Sunlit
N/A
Visualization observer readout
Local Sidereal Time
14:44:51
Azimuth
Unknown
Elevation
Unknown
Doppler factor
Unknown
Orbital elements
Apogee altitude
1,583.749 km
Perigee altitude
1,498.884 km
Semi-major axis
7,919.454 km
Eccentricity
0.00536
Inclination
102.403°
RAAN
98.003°
Arg. of periapsis
340.8559°
True anomaly
86.8245°
Mean anomaly
86.2116°
Eccentric anomaly
86.51802°
Mean motion
3.07964 °/min
Orbital period
116.9 mins
BSTAR
0.000090398
Loading maneuver chart data...
Computing Atmospheric mass density...
Loading historical data...
Loading historical data...
Loading historical data...
Loading historical data...
Loading historical data...
Loading historical data...
Loading historical data...

Documentation

Showing up to 5 results
|